Location: Schommer Observatory
(40.5200°N, 74.4500°W)
Time: 18:08:16
(UTC-05:00)

N. Korean satellite - Pass Details

Date: 12 November 2017
Orbit: 460 x 515 km, 97.2° (Epoch: 17 November)

Event Time Altitude Azimuth Distance (km) Brightness Sun altitude
Rises 05:50:10 0° 30° (NNE) 2,588 10.5 -10.0°
Reaches altitude 10° 05:52:51 10° 52° (NE) 1,710 9.9 -9.5°
Maximum altitude 05:55:17 17° 93° (E) 1,351 10.1 -9.0°
Drops below altitude 10° 05:57:42 10° 135° (SE) 1,718 10.4 -8.6°
Sets 06:00:24 0° 156° (SSE) 2,605 10.9 -8.1°
